| time (UTC) | temp C | wind direction | speed KPH | gust KPH | rain 1hr cm | rain 24hr cm | rain mn cm | humidity % | barometer mb |
| 20260505035432 | 20 | 16 | 1.6 | 4.8 | 0.00 | 0.00 | 0.00 | 50 | 1012.9 |
| 20260505025510 | 23 | 236 | 8.0 | 30.6 | 0.00 | 0.00 | 0.00 | 38 | 1011.6 |
| 20260505024009 | 23 | 236 | 8.0 | 30.6 | 0.00 | 0.00 | 0.00 | 38 | 1011.6 |
| 20260505022507 | 23 | 236 | 8.0 | 30.6 | 0.00 | 0.00 | 0.00 | 38 | 1011.6 |
| 20260505021002 | 24 | 243 | 9.7 | 27.4 | 0.00 | 0.00 | 0.00 | 37 | 1011.6 |
| 20260505015457 | 25 | 263 | 19.3 | 37.0 | 0.00 | 0.00 | 0.00 | 35 | 1011.6 |
| 20260505013954 | 25 | 263 | 19.3 | 37.0 | 0.00 | 0.00 | 0.00 | 35 | 1011.6 |
| 20260505012452 | 25 | 263 | 19.3 | 37.0 | 0.00 | 0.00 | 0.00 | 35 | 1011.6 |
| 20260505010947 | 26 | 262 | 14.5 | 29.0 | 0.00 | 0.00 | 0.00 | 34 | 1011.2 |
| 20260505005442 | 26 | 262 | 14.5 | 29.0 | 0.00 | 0.00 | 0.00 | 34 | 1011.2 |
| 20260505003939 | 26 | 261 | 14.5 | 32.2 | 0.00 | 0.00 | 0.00 | 33 | 1011.2 |
| 20260505002434 | 26 | 261 | 14.5 | 32.2 | 0.00 | 0.00 | 0.00 | 33 | 1011.2 |
| 20260505000933 | 26 | 261 | 14.5 | 32.2 | 0.00 | 0.00 | 0.00 | 33 | 1011.2 |
| 20260504232439 | 26 | 258 | 14.5 | 32.2 | 0.00 | 0.00 | 0.00 | 33 | 1011.6 |
| 20260504230935 | 26 | 258 | 14.5 | 32.2 | 0.00 | 0.00 | 0.00 | 33 | 1011.6 |
| 20260504225433 | 26 | 258 | 14.5 | 32.2 | 0.00 | 0.00 | 0.00 | 33 | 1011.6 |
| 20260504223930 | 26 | 262 | 17.7 | 38.6 | 0.00 | 0.00 | 0.00 | 33 | 1011.6 |
| 20260504222431 | 25 | 266 | 20.9 | 48.3 | 0.00 | 0.00 | 0.00 | 34 | 1011.9 |
| 20260504214000 | 25 | 271 | 19.3 | 45.1 | 0.00 | 0.00 | 0.00 | 38 | 1011.9 |
| 20260504212455 | 25 | 271 | 19.3 | 45.1 | 0.00 | 0.00 | 0.00 | 38 | 1011.9 |
| 20260504210953 | 25 | 271 | 19.3 | 45.1 | 0.00 | 0.00 | 0.00 | 38 | 1011.9 |
| 20260504205450 | 25 | 276 | 19.3 | 48.3 | 0.00 | 0.00 | 0.00 | 39 | 1011.9 |
| 20260504203945 | 25 | 276 | 19.3 | 48.3 | 0.00 | 0.00 | 0.00 | 39 | 1011.9 |
| 20260504202441 | 25 | 276 | 19.3 | 48.3 | 0.00 | 0.00 | 0.00 | 39 | 1011.9 |
| 20260504200938 | 25 | 268 | 14.5 | 43.5 | 0.00 | 0.00 | 0.00 | 39 | 1011.9 |
| 20260504195433 | 24 | 267 | 16.1 | 33.8 | 0.00 | 0.00 | 0.00 | 39 | 1012.2 |
| 20260504193933 | 23 | 272 | 19.3 | 41.8 | 0.00 | 0.00 | 0.00 | 41 | 1012.2 |
| 20260504192432 | 23 | 272 | 19.3 | 41.8 | 0.00 | 0.00 | 0.00 | 41 | 1012.2 |
| 20260504190929 | 23 | 272 | 19.3 | 41.8 | 0.00 | 0.00 | 0.00 | 41 | 1012.2 |
| 20260504184000 | 22 | 265 | 9.7 | 20.9 | 0.00 | 0.00 | 0.00 | 42 | 1012.6 |
| 20260504182457 | 22 | 265 | 9.7 | 20.9 | 0.00 | 0.00 | 0.00 | 42 | 1012.6 |
| 20260504180956 | 22 | 265 | 9.7 | 20.9 | 0.00 | 0.00 | 0.00 | 42 | 1012.6 |
| 20260504175455 | 21 | 277 | 12.9 | 27.4 | 0.00 | 0.00 | 0.00 | 44 | 1012.9 |
| 20260504173953 | 21 | 277 | 12.9 | 27.4 | 0.00 | 0.00 | 0.00 | 44 | 1012.9 |
| 20260504172448 | 20 | 268 | 16.1 | 24.1 | 0.00 | 0.00 | 0.00 | 45 | 1012.9 |
| 20260504170945 | 18 | 228 | 0.0 | 4.8 | 0.00 | 0.00 | 0.00 | 50 | 1013.2 |
| 20260504151015 | 13 | 190 | 1.6 | 6.4 | 0.00 | 0.00 | 0.00 | 67 | 1014.0 |
| 20260504045431 | 17 | 43 | 1.6 | 6.4 | 0.00 | 0.00 | 0.00 | 56 | 1013.6 |